{"data":{"norad_id":53929,"epoch":"2026-05-24T23:02:50.815968Z","epoch_age_seconds":78640,"freshness":"FRESH","line1":"1 53929U 22119AV  26144.96031037  .00000386  00000+0  42363-4 0  9997","line2":"2 53929  53.2123 332.1026 0001488  90.5058 269.6105 15.08837946203332","mean_motion":15.08837946,"eccentricity":0.0001488,"inclination_deg":53.2123,"raan_deg":332.1026,"arg_perigee_deg":90.5058,"mean_anomaly_deg":269.6105,"bstar":4.2363e-5,"rev_number":20333,"period_min":95.437684598105,"perigee_km":538.72028569143,"apogee_km":540.77904876359,"semimajor_km":6917.8866672275,"source":"CELESTRAK","updated_at":"2026-05-25T13:38:17.615088Z"}}